{"data":{"norad_id":41904,"epoch":"2026-05-25T03:26:38.623776Z","epoch_age_seconds":56640,"freshness":"FRESH","line1":"1 41904U 16082B   26145.14350259 -.00000213  00000+0  00000+0 0  9997","line2":"2 41904   0.0180  56.2348 0002054  17.0416 137.1190  1.00269674 34540","mean_motion":1.00269674,"eccentricity":0.0002054,"inclination_deg":0.018,"raan_deg":56.2348,"arg_perigee_deg":17.0416,"mean_anomaly_deg":137.119,"bstar":0,"rev_number":3454,"period_min":1436.1271385005,"perigee_km":35778.526004004,"apogee_km":35795.847519005,"semimajor_km":42165.323761505,"source":"CELESTRAK","updated_at":"2026-05-25T13:38:14.011552Z"}}